When you browse on this site, cookies collect data to enhance your experience and personalize the content and advertising you see.
Visit our Privacy Policy to learn more. By continuing to use the site, you agree to this use of cookies and data.
  • In Schweiz
  • Länderverzeichnis
  • Für 7 Tage
  • Wassertemperatur
  • Wetterkarte
  • Widgets
  • user-avatar
    Anmelden

    Stündliche Wetter Hrasdan

    Heute, 14 Oktober, Montag

    Zeit Temperatur Niederschläge Wind Luftdruck Luftfeuchtigkeit
    00:00 +8°C° 0 mm 1 m/S 619 mmHg 45%
    01:00 +8°C° 0 mm 1 m/S 619 mmHg 42%
    02:00 +8°C° 0 mm 1 m/S 619 mmHg 40%
    03:00 +7°C° 0 mm 1 m/S 619 mmHg 36%
    04:00 +7°C° 0 mm 1 m/S 619 mmHg 35%
    05:00 +7°C° 0 mm 1 m/S 619 mmHg 35%
    06:00 +7°C° 0 mm 1 m/S 618 mmHg 35%
    07:00 +9°C° 0 mm 1 m/S 619 mmHg 33%
    08:00 +12°C° 0 mm 1 m/S 621 mmHg 31%
    09:00 +14°C° 0 mm 1 m/S 622 mmHg 29%
    10:00 +16°C° 0 mm 1 m/S 622 mmHg 26%
    11:00 +18°C° 0 mm 1 m/S 622 mmHg 24%
    12:00 +18°C° 0 mm 2 m/S 622 mmHg 21%
    13:00 +18°C° 0 mm 2 m/S 622 mmHg 22%
    14:00 +18°C° 0 mm 2 m/S 622 mmHg 22%
    15:00 +19°C° 0 mm 2 m/S 621 mmHg 23%
    16:00 +16°C° 0 mm 1 m/S 621 mmHg 29%
    17:00 +14°C° 0 mm 1 m/S 620 mmHg 36%
    18:00 +11°C° 0 mm 0 m/S 619 mmHg 42%
    19:00 +10°C° 0 mm 0 m/S 619 mmHg 44%
    20:00 +10°C° 0 mm 0 m/S 619 mmHg 46%
    21:00 +11°C° 0 mm 1 m/S 619 mmHg 48%
    22:00 +10°C° 0 mm 1 m/S 619 mmHg 50%
    23:00 +10°C° 0 mm 1 m/S 619 mmHg 51%

    Morgen, 15 Oktober, Dienstag

    Zeit Temperatur Niederschläge Wind Luftdruck Luftfeuchtigkeit
    00:00 +10°C° 0 mm 1 m/S 618 mmHg 52%
    01:00 +9°C° 0 mm 1 m/S 618 mmHg 52%
    02:00 +9°C° 0 mm 1 m/S 618 mmHg 52%
    03:00 +9°C° 0 mm 1 m/S 618 mmHg 51%
    04:00 +9°C° 0 mm 1 m/S 618 mmHg 49%
    05:00 +8°C° 0 mm 1 m/S 618 mmHg 46%
    06:00 +8°C° 0 mm 1 m/S 617 mmHg 43%
    07:00 +11°C° 0 mm 1 m/S 618 mmHg 38%
    08:00 +13°C° 0 mm 1 m/S 619 mmHg 32%
    09:00 +16°C° 0 mm 1 m/S 621 mmHg 27%
    10:00 +18°C° 0 mm 1 m/S 621 mmHg 24%
    11:00 +18°C° 0 mm 2 m/S 621 mmHg 22%
    12:00 +19°C° 0 mm 2 m/S 621 mmHg 20%
    13:00 +19°C° 0 mm 2 m/S 620 mmHg 21%
    14:00 +19°C° 0 mm 2 m/S 620 mmHg 21%
    15:00 +19°C° 0 mm 2 m/S 619 mmHg 22%
    16:00 +17°C° 0 mm 2 m/S 618 mmHg 26%
    17:00 +15°C° 0 mm 1 m/S 617 mmHg 31%
    18:00 +13°C° 0 mm 1 m/S 616 mmHg 36%
    19:00 +12°C° 0 mm 1 m/S 617 mmHg 34%
    20:00 +12°C° 0 mm 1 m/S 617 mmHg 32%
    21:00 +12°C° 0 mm 1 m/S 617 mmHg 30%
    22:00 +11°C° 0 mm 1 m/S 617 mmHg 29%
    23:00 +11°C° 0 mm 1 m/S 616 mmHg 28%

    übermorgen, 16 Oktober, Mittwoch

    Zeit Temperatur Niederschläge Wind Luftdruck Luftfeuchtigkeit
    00:00 +11°C° 0 mm 1 m/S 616 mmHg 27%
    01:00 +11°C° 0 mm 1 m/S 616 mmHg 27%
    02:00 +10°C° 0 mm 1 m/S 616 mmHg 27%
    03:00 +10°C° 0 mm 1 m/S 616 mmHg 27%
    04:00 +10°C° 0 mm 1 m/S 615 mmHg 27%
    05:00 +10°C° 0 mm 1 m/S 615 mmHg 27%
    06:00 +10°C° 0 mm 1 m/S 615 mmHg 28%
    07:00 +12°C° 0 mm 1 m/S 616 mmHg 25%
    08:00 +14°C° 0 mm 1 m/S 617 mmHg 23%
    09:00 +18°C° 0 mm 1 m/S 618 mmHg 21%
    10:00 +19°C° 0 mm 1 m/S 618 mmHg 19%
    11:00 +19°C° 0 mm 2 m/S 619 mmHg 17%
    12:00 +20°C° 0 mm 2 m/S 619 mmHg 16%
    13:00 +20°C° 0 mm 2 m/S 618 mmHg 16%
    14:00 +20°C° 0 mm 2 m/S 618 mmHg 17%
    15:00 +20°C° 0 mm 2 m/S 618 mmHg 17%
    16:00 +19°C° 0 mm 1 m/S 617 mmHg 21%
    17:00 +16°C° 0 mm 1 m/S 616 mmHg 26%
    18:00 +12°C° 0 mm 0 m/S 615 mmHg 30%
    19:00 +13°C° 0 mm 1 m/S 615 mmHg 31%
    20:00 +13°C° 0 mm 1 m/S 615 mmHg 32%
    21:00 +12°C° 0 mm 1 m/S 616 mmHg 33%
    22:00 +12°C° 0 mm 1 m/S 616 mmHg 34%
    23:00 +12°C° 0 mm 1 m/S 616 mmHg 36%

    17 Oktober, Donnerstag

    Zeit Temperatur Niederschläge Wind Luftdruck Luftfeuchtigkeit
    00:00 +11°C° 0 mm 1 m/S 616 mmHg 37%
    01:00 +11°C° 0 mm 1 m/S 616 mmHg 38%
    02:00 +11°C° 0 mm 1 m/S 616 mmHg 38%
    03:00 +11°C° 0 mm 1 m/S 615 mmHg 38%
    04:00 +10°C° 0 mm 1 m/S 615 mmHg 39%
    05:00 +10°C° 0 mm 1 m/S 615 mmHg 40%
    06:00 +10°C° 0 mm 1 m/S 615 mmHg 40%
    07:00 +12°C° 0 mm 1 m/S 616 mmHg 36%
    08:00 +14°C° 0 mm 1 m/S 617 mmHg 31%
    09:00 +16°C° 0 mm 0 m/S 618 mmHg 26%
    10:00 +19°C° 0 mm 1 m/S 619 mmHg 24%
    11:00 +19°C° 0 mm 2 m/S 619 mmHg 21%
    12:00 +20°C° 0 mm 2 m/S 619 mmHg 19%
    13:00 +20°C° 0 mm 2 m/S 619 mmHg 20%
    14:00 +20°C° 0 mm 2 m/S 618 mmHg 22%
    15:00 +20°C° 0 mm 2 m/S 618 mmHg 24%
    16:00 +17°C° 0 mm 2 m/S 617 mmHg 33%
    17:00 +15°C° 0 mm 1 m/S 616 mmHg 42%
    18:00 +13°C° 0 mm 1 m/S 615 mmHg 51%
    19:00 +12°C° 0 mm 1 m/S 615 mmHg 53%
    20:00 +12°C° 0 mm 1 m/S 615 mmHg 56%
    21:00 +12°C° 0 mm 1 m/S 616 mmHg 58%
    22:00 +11°C° 0 mm 1 m/S 615 mmHg 57%
    23:00 +11°C° 0 mm 1 m/S 615 mmHg 55%

    18 Oktober, Freitag

    Zeit Temperatur Niederschläge Wind Luftdruck Luftfeuchtigkeit
    00:00 +11°C° 0 mm 1 m/S 615 mmHg 54%
    01:00 +11°C° 0 mm 1 m/S 615 mmHg 49%
    02:00 +11°C° 0 mm 1 m/S 615 mmHg 45%
    03:00 +11°C° 0 mm 1 m/S 615 mmHg 40%
    04:00 +11°C° 0 mm 1 m/S 615 mmHg 38%
    05:00 +10°C° 0 mm 1 m/S 614 mmHg 36%
    06:00 +10°C° 0 mm 1 m/S 614 mmHg 34%
    07:00 +13°C° 0 mm 1 m/S 615 mmHg 31%
    08:00 +15°C° 0 mm 1 m/S 616 mmHg 28%
    09:00 +17°C° 0 mm 2 m/S 617 mmHg 25%
    10:00 +18°C° 0 mm 2 m/S 617 mmHg 25%
    11:00 +19°C° 0 mm 2 m/S 617 mmHg 24%
    12:00 +20°C° 0 mm 3 m/S 617 mmHg 24%
    13:00 +20°C° 0 mm 3 m/S 617 mmHg 24%
    14:00 +20°C° 0 mm 3 m/S 616 mmHg 25%
    15:00 +20°C° 0 mm 3 m/S 616 mmHg 26%
    16:00 +18°C° 0 mm 2 m/S 615 mmHg 32%
    17:00 +16°C° 0 mm 1 m/S 615 mmHg 37%
    18:00 +13°C° 0 mm 0 m/S 614 mmHg 43%
    19:00 +14°C° 0 mm 1 m/S 614 mmHg 45%
    20:00 +13°C° 0 mm 1 m/S 614 mmHg 47%
    21:00 +13°C° 0 mm 1 m/S 614 mmHg 49%
    22:00 +12°C° 0 mm 1 m/S 614 mmHg 49%
    23:00 +12°C° 0 mm 1 m/S 614 mmHg 49%

    19 Oktober, Samstag

    Zeit Temperatur Niederschläge Wind Luftdruck Luftfeuchtigkeit
    00:00 +12°C° 0 mm 1 m/S 614 mmHg 49%
    01:00 +12°C° 0 mm 1 m/S 614 mmHg 50%
    02:00 +11°C° 0 mm 1 m/S 614 mmHg 50%
    03:00 +11°C° 0 mm 1 m/S 614 mmHg 51%
    04:00 +11°C° 0 mm 1 m/S 614 mmHg 52%
    05:00 +11°C° 0 mm 1 m/S 614 mmHg 52%
    06:00 +10°C° 0 mm 1 m/S 614 mmHg 53%
    07:00 +12°C° 0 mm 1 m/S 615 mmHg 48%
    08:00 +14°C° 0 mm 1 m/S 616 mmHg 43%
    09:00 +18°C° 0 mm 1 m/S 617 mmHg 37%
    10:00 +18°C° 0 mm 1 m/S 617 mmHg 36%
    11:00 +18°C° 0 mm 2 m/S 617 mmHg 34%
    12:00 +19°C° 0 mm 2 m/S 617 mmHg 32%
    13:00 +19°C° 0 mm 2 m/S 617 mmHg 33%
    14:00 +19°C° 0 mm 2 m/S 616 mmHg 34%
    15:00 +19°C° 0 mm 2 m/S 616 mmHg 34%
    16:00 +17°C° 0 mm 2 m/S 615 mmHg 43%
    17:00 +15°C° 0 mm 1 m/S 615 mmHg 51%
    18:00 +13°C° 0 mm 1 m/S 614 mmHg 60%
    19:00 +13°C° 0 mm 1 m/S 615 mmHg 61%
    20:00 +12°C° 0 mm 1 m/S 615 mmHg 63%
    21:00 +12°C° 0 mm 1 m/S 615 mmHg 64%
    22:00 +12°C° 0 mm 1 m/S 615 mmHg 66%
    23:00 +11°C° 0 mm 1 m/S 615 mmHg 68%
    Mehr zeigen